Overview Statistics Trail Chart Weather Telemetry Raw packets
 

This is the latest recevied weather packets stored in our database for station/object WA6ODQ-13. If no packets are shown the sender has not sent any weather packets the latest 10 day(s).

<< 6 7 8 9 10 11 12 >>
Time Temp. Humidity Pressure Rain* Wind** Luminosity Snow
1788620208 12.22° C 92% 1013.1 hPa 0 mm - 23 W/m² -
1788619903 11.67° C 93% 1013 hPa 0 mm - 22 W/m² -
1788619598 11.67° C 93% 1012.9 hPa 0 mm - 22 W/m² -
1788619297 11.67° C 93% 1012.7 hPa 0 mm - 21 W/m² -
1788618996 11.67° C 94% 1012.8 hPa 0 mm - 20 W/m² -
1788618686 11.67° C 94% 1012.7 hPa 0 mm - 18 W/m² -
1788618385 11.11° C 94% 1012.7 hPa 0 mm - 17 W/m² -
1788618084 11.11° C 94% 1012.7 hPa 0 mm - 16 W/m² -
1788617779 11.11° C 94% 1012.2 hPa 0 mm - 15 W/m² -
1788617476 11.11° C 94% 1012.6 hPa 0 mm - 13 W/m² -
1788617171 11.11° C 94% 1012.3 hPa 0 mm - 11 W/m² -
1788616869 10.56° C 93% 1012.4 hPa 0 mm - 10 W/m² -
1788616565 10.56° C 93% 1012.2 hPa 0 mm - 8 W/m² -
1788616260 10.56° C 93% 1012.2 hPa 0 mm - 5 W/m² -
1788615954 10.56° C 93% 1012 hPa 0 mm - 4 W/m² -
1788615669 11.11° C 93% 1012 hPa 0 mm - 2 W/m² -
1788615349 11.11° C 93% 1012.1 hPa 0 mm - 1 W/m² -
1788615043 11.11° C 92% 1012 hPa 0 mm - 0 W/m² -
1788614743 11.11° C 92% 1011.9 hPa 0 mm - 0 W/m² -
1788614438 11.11° C 92% 1012 hPa 0 mm - 0 W/m² -
1788614133 11.11° C 92% 1012.1 hPa 0 mm - 0 W/m² -
1788613828 11.11° C 92% 1012.1 hPa 0 mm - 0 W/m² -
1788613527 11.11° C 91% 1012 hPa 0 mm - 0 W/m² -
1788613223 11.67° C 91% 1011.8 hPa 0 mm - 0 W/m² -
1788612922 11.67° C 91% 1012 hPa 0 mm - 0 W/m² -

* Rain latest hour (hover to see other rain measurements)
** Current wind speed in m/s (hover to see current wind gust speed)